Abilene, TX

7:19 AM CST on November 18, 2017 (GMT -0600)
Abilene Regional

Weather History for KABI - December, 2014

Change the Weather History Date:

Tuesday, December 2, 2014

  Actual Average Record
Temperature  
Mean Temperature 42 °F 48 °F  
Max Temperature 51 °F 60 °F 82 °F (1995)
Min Temperature 32 °F 36 °F 15 °F (1985)
Degree Days  
Heating Degree Days 23 17  
Month to date heating degree days 54 34  
Since 1 July heating degree days 471 467  
Cooling Degree Days 0 0  
Month to date cooling degree days 0 0  
Year to date cooling degree days 2819 2408  
Moisture  
Dew Point 24 °F    
Average Humidity 58    
Maximum Humidity 80    
Minimum Humidity 35    
Precipitation  
Precipitation 0.00 in 0.03 in 0.78 in (2016)
Month to date precipitation 0.00 0.07  
Year to date precipitation 14.49 23.66  
Sea Level Pressure  
Sea Level Pressure 30.23 in    
Wind  
Wind Speed 7 mph (SSE)    
Max Wind Speed 21 mph    
Max Gust Speed 25 mph    
Visibility 10 miles    
Events      
T = Trace of Precipitation, MM = Missing Value Source: NWS Daily Summary

Daily Weather History Graph

Daily Weather History Graph

Search for Another Location

Airport or City:

Trip Planner

Search our weather history database for the weather conditions in past years. The results will help you decide how hot, cold, wet, or windy it might be!

Date:

Astronomy

Dec. 02, 2014 Rise Set
Actual Time 7:23 AM CST 5:33 PM CST
Civil Twilight 6:56 AM CST 5:59 PM CST
Nautical Twilight 6:25 AM CST 6:30 PM CST
Astronomical Twilight 5:56 AM CST 6:59 PM CST
Moon 3:04 PM CST (12/2) 3:20 AM CST (12/2)
Length of Visible Light 11h 03m
Length of Day
10h 09m
Waxing Gibbous, 84% of the Moon is Illuminated
Dec 2
Waxing Gibbous
Dec 6
Full
Dec 14
Last Quarter
Dec 21
New
Dec 28
First Quarter

Hourly Weather History & Observations

Time (CST) Temp. Windchill Dew Point Humidity Pressure Visibility Wind Dir Wind Speed Gust Speed Precip Events Conditions
12:52 AM 32.0 °F 28.7 °F 9.0 °F 38% 30.45 in 10.0 mi North 3.5 mph - N/A   Overcast
1:52 AM 32.0 °F - 8.1 °F 37% 30.42 in 10.0 mi Calm Calm - N/A   Overcast
2:52 AM 32.0 °F - 9.0 °F 38% 30.39 in 10.0 mi Calm Calm - N/A   Overcast
3:52 AM 33.1 °F - 10.0 °F 38% 30.38 in 10.0 mi Calm Calm - N/A   Overcast
4:52 AM 34.0 °F - 10.0 °F 37% 30.38 in 10.0 mi Calm Calm - N/A   Overcast
5:52 AM 34.0 °F 31.0 °F 10.0 °F 37% 30.35 in 10.0 mi SE 3.5 mph - N/A   Overcast
6:52 AM 34.0 °F - 10.0 °F 37% 30.37 in 10.0 mi Calm Calm - N/A   Overcast
7:52 AM 35.1 °F 32.2 °F 10.0 °F 35% 30.36 in 10.0 mi SE 3.5 mph - N/A   Overcast
8:52 AM 36.0 °F 31.1 °F 12.0 °F 37% 30.34 in 10.0 mi SSE 5.8 mph - N/A   Overcast
9:52 AM 37.9 °F 31.5 °F 14.0 °F 38% 30.32 in 10.0 mi SSE 9.2 mph - N/A   Overcast
10:52 AM 39.0 °F 34.0 °F 15.1 °F 38% 30.32 in 10.0 mi SSE 6.9 mph - N/A   Overcast
11:52 AM 41.0 °F 36.4 °F 17.1 °F 38% 30.29 in 10.0 mi SSE 6.9 mph - N/A   Overcast
12:52 PM 43.0 °F 40.3 °F 19.0 °F 38% 30.26 in 10.0 mi South 4.6 mph - N/A   Overcast
1:52 PM 45.0 °F 40.6 °F 21.9 °F 40% 30.24 in 10.0 mi SSW 8.1 mph - N/A   Overcast
2:52 PM 46.0 °F 41.0 °F 26.1 °F 46% 30.18 in 10.0 mi SSE 10.4 mph - N/A   Overcast
3:52 PM 48.0 °F - 28.9 °F 48% 30.15 in 10.0 mi South 9.2 mph - N/A   Overcast
4:52 PM 48.9 °F - 33.1 °F 54% 30.14 in 10.0 mi South 11.5 mph - N/A   Overcast
5:52 PM 48.0 °F - 32.0 °F 54% 30.12 in 10.0 mi SSE 9.2 mph - N/A   Mostly Cloudy
6:09 PM 46.9 °F - 32.0 °F 56% 30.12 in 10.0 mi SSE 11.5 mph - N/A   Scattered Clouds
6:52 PM 46.0 °F 41.0 °F 32.0 °F 58% 30.12 in 10.0 mi SSE 10.4 mph - N/A   Clear
7:52 PM 46.0 °F 39.6 °F 33.1 °F 61% 30.11 in 10.0 mi SSE 15.0 mph - N/A   Clear
8:52 PM 48.9 °F - 39.0 °F 69% 30.09 in 10.0 mi South 13.8 mph - N/A   Partly Cloudy
9:07 PM 50.0 °F - 39.9 °F 68% 30.09 in 10.0 mi South 19.6 mph - N/A   Mostly Cloudy
9:52 PM 51.1 °F - 42.1 °F 71% 30.09 in 10.0 mi South 16.1 mph - N/A   Overcast
10:27 PM 48.9 °F - 42.1 °F 77% 30.08 in 10.0 mi SSE 13.8 mph - N/A   Scattered Clouds
10:52 PM 48.9 °F - 42.1 °F 77% 30.09 in 10.0 mi South 13.8 mph - N/A   Partly Cloudy
11:52 PM 48.9 °F - 43.0 °F 80% 30.08 in 10.0 mi South 15.0 mph - N/A   Clear